Location: Marcé
(47.5801°N, 0.3280°W)
Time: 23:27:27
(UTC+01:00)

S-56A Canister/Altair - Pass Details

Date: 02 December 2021
Orbit: 633 x 2499 km, 38.9° (Epoch: 16 January)

Event Time Altitude Azimuth Distance (km) Brightness Sun altitude
Rises 01:12:11 0° 224° (SW) 5,019 - -64.0°
Reaches altitude 10° 01:16:30 10° 214° (SSW) 3,687 - -63.9°
Maximum altitude 01:23:35 27° 162° (SSE) 2,101 - -63.5°
Drops below altitude 10° 01:28:49 10° 107° (ESE) 2,658 - -63.3°
Sets 01:31:23 0° 94° (E) 3,402 - -63.1°
